Location: Vesunti
(61.5000°N, 22.8333°E)
Time: 16:24:48
(UTC+00:00)

Cosmos 1461 - Pass Details

Date: 17 February 2020
Orbit: 511 x 655 km, 65.0° (Epoch: 06 April)

Event Time Altitude Azimuth Distance (km) Brightness Sun altitude
Exits shadow 03:02:11 66° 331° (NNW) 618 2.9 -22.6°
Maximum altitude 03:02:17 67° 340° (NNW) 617 2.9 -22.6°
Drops below altitude 10° 03:06:33 10° 64° (ENE) 1,907 6.7 -22.1°
Sets 03:08:52 0° 68° (ENE) 2,835 7.9 -21.8°
